オルバース彗星

13P/Olbers (2024)

English version
Home page
Updated on December 29, 2018

---------------------------------------------------------------------

・ プロフィール

・ 軌道要素

Perturbed ephemeris below is based on elements from QJ 27, 604. 

 Epoch = 2460480.50000 TT   T = 2460491.82354 TT
 Peri. =   64.41559         a =    16.8667436 AU
 Node  =   85.84736 J2000.0 e =     0.9303071
 Incl. =   44.66686         q =     1.1754925 AU

・ 星図

・ 光度変化

        m1 = 5.0 + 5 logΔ + 15.0 log r

---------------------------------------------------------------------

軌道要素はMinor Planet & Comet Ephemeris Serviceで計算したものです。
星図はステラナビゲータ Ver.10 (アストロアーツ) で作成したものです。
光度グラフはComet for Windowsで作成したものです。

---------------------------------------------------------------------

Copyright(C) Seiichi Yoshida (comet@aerith.net). All rights reserved.